owner,sensor,date,latitude,longitude,vertical_datum,sea_water_practical_salinity,qcFlag 
DISL,ioos:station:DISL:BSCA:1,2017-10-01T00:00:00Z,30.3288,-87.8293,1.961,14.89,1111122 
DISL,ioos:station:DISL:BSCA:1,2017-10-01T00:30:00Z,30.3288,-87.8293,1.972,15.53,1111122 
DISL,ioos:station:DISL:BSCA:1,2017-10-01T01:00:00Z,30.3288,-87.8293,2.024,15.73,1111122 
DISL,ioos:station:DISL:BSCA:1,2017-10-01T01:30:00Z,30.3288,-87.8293,1.989,15.77,1111122 
DISL,ioos:station:DISL:BSCA:1,2017-10-01T02:00:00Z,30.3288,-87.8293,2.032,15.6,1111122 
DISL,ioos:station:DISL:BSCA:1,2017-10-01T02:30:00Z,30.3288,-87.8293,2.008,15.04,1111122 
DISL,ioos:station:DISL:BSCA:1,2017-10-01T03:00:00Z,30.3288,-87.8293,2.053,15.31,1111122 
DISL,ioos:station:DISL:BSCA:1,2017-10-01T03:30:00Z,30.3288,-87.8293,2.072,15.32,1111122 
DISL,ioos:station:DISL:BSCA:1,2017-10-01T04:00:00Z,30.3288,-87.8293,2.095,15.57,1111122 
DISL,ioos:station:DISL:BSCA:1,2017-10-01T04:30:00Z,30.3288,-87.8293,2.11,15.22,1111122 
DISL,ioos:station:DISL:BSCA:1,2017-10-01T05:00:00Z,30.3288,-87.8293,2.12,14.98,1111122 
DISL,ioos:station:DISL:BSCA:1,2017-10-01T05:30:00Z,30.3288,-87.8293,2.111,15.54,1111122 
DISL,ioos:station:DISL:BSCA:1,2017-10-01T06:00:00Z,30.3288,-87.8293,2.122,15.17,1111122 
DISL,ioos:station:DISL:BSCA:1,2017-10-01T06:30:00Z,30.3288,-87.8293,2.113,15.18,1111122 
DISL,ioos:station:DISL:BSCA:1,2017-10-01T07:00:00Z,30.3288,-87.8293,2.114,15.74,1111122 
DISL,ioos:station:DISL:BSCA:1,2017-10-01T07:30:00Z,30.3288,-87.8293,2.098,15.77,1111122 
DISL,ioos:station:DISL:BSCA:1,2017-10-01T08:00:00Z,30.3288,-87.8293,2.123,16.19,1111122 
DISL,ioos:station:DISL:BSCA:1,2017-10-01T08:30:00Z,30.3288,-87.8293,2.15,16.5,1111122 
DISL,ioos:station:DISL:BSCA:1,2017-10-01T09:00:00Z,30.3288,-87.8293,2.21,16.46,1111122 
DISL,ioos:station:DISL:BSCA:1,2017-10-01T09:30:00Z,30.3288,-87.8293,2.227,16.61,1111122 
DISL,ioos:station:DISL:BSCA:1,2017-10-01T10:00:00Z,30.3288,-87.8293,2.235,15.88,1111122 
DISL,ioos:station:DISL:BSCA:1,2017-10-01T10:30:00Z,30.3288,-87.8293,2.269,17.37,1111122 
DISL,ioos:station:DISL:BSCA:1,2017-10-01T11:00:00Z,30.3288,-87.8293,2.294,17.02,1111122 
DISL,ioos:station:DISL:BSCA:1,2017-10-01T11:30:00Z,30.3288,-87.8293,2.316,16.77,1111122 
DISL,ioos:station:DISL:BSCA:1,2017-10-01T12:00:00Z,30.3288,-87.8293,2.272,16.86,1111122 
DISL,ioos:station:DISL:BSCA:1,2017-10-01T12:30:00Z,30.3288,-87.8293,2.279,17.02,1111122 
DISL,ioos:station:DISL:BSCA:1,2017-10-01T13:00:00Z,30.3288,-87.8293,2.264,16.84,1111122 
DISL,ioos:station:DISL:BSCA:1,2017-10-01T13:30:00Z,30.3288,-87.8293,2.251,16.9,1111122 
DISL,ioos:station:DISL:BSCA:1,2017-10-01T14:00:00Z,30.3288,-87.8293,2.245,16.69,1111122 
DISL,ioos:station:DISL:BSCA:1,2017-10-01T14:30:00Z,30.3288,-87.8293,2.237,17.26,1111122 
DISL,ioos:station:DISL:BSCA:1,2017-10-01T15:00:00Z,30.3288,-87.8293,2.236,17.35,1111122 
DISL,ioos:station:DISL:BSCA:1,2017-10-01T15:30:00Z,30.3288,-87.8293,2.238,17.51,1111122 
DISL,ioos:station:DISL:BSCA:1,2017-10-01T16:00:00Z,30.3288,-87.8293,2.239,17.55,1111122 
DISL,ioos:station:DISL:BSCA:1,2017-10-01T16:30:00Z,30.3288,-87.8293,2.234,17.56,1111122 
DISL,ioos:station:DISL:BSCA:1,2017-10-01T17:00:00Z,30.3288,-87.8293,2.228,17.63,1111122 
DISL,ioos:station:DISL:BSCA:1,2017-10-01T17:30:00Z,30.3288,-87.8293,2.217,17.69,1111122 
DISL,ioos:station:DISL:BSCA:1,2017-10-01T18:00:00Z,30.3288,-87.8293,2.201,17.7,1111122 
DISL,ioos:station:DISL:BSCA:1,2017-10-01T18:30:00Z,30.3288,-87.8293,2.191,17.68,1111122 
DISL,ioos:station:DISL:BSCA:1,2017-10-01T19:00:00Z,30.3288,-87.8293,2.184,17.77,1111122 
DISL,ioos:station:DISL:BSCA:1,2017-10-01T19:30:00Z,30.3288,-87.8293,2.158,17.78,1111122 
DISL,ioos:station:DISL:BSCA:1,2017-10-01T20:00:00Z,30.3288,-87.8293,2.135,17.83,1111122 
DISL,ioos:station:DISL:BSCA:1,2017-10-01T20:30:00Z,30.3288,-87.8293,2.087,17.9,1111122 
DISL,ioos:station:DISL:BSCA:1,2017-10-01T21:00:00Z,30.3288,-87.8293,2.061,17.89,1111122 
DISL,ioos:station:DISL:BSCA:1,2017-10-01T21:30:00Z,30.3288,-87.8293,2.026,17.9,1111122 
DISL,ioos:station:DISL:BSCA:1,2017-10-01T22:00:00Z,30.3288,-87.8293,2.027,17.53,1111122 
DISL,ioos:station:DISL:BSCA:1,2017-10-01T22:30:00Z,30.3288,-87.8293,2.034,17.62,1111122 
DISL,ioos:station:DISL:BSCA:1,2017-10-01T23:00:00Z,30.3288,-87.8293,2.036,18.02,1111122 
DISL,ioos:station:DISL:BSCA:1,2017-10-01T23:30:00Z,30.3288,-87.8293,2.034,17.64,1111122 
DISL,ioos:station:DISL:BSCA:1,2017-10-02T00:00:00Z,30.3288,-87.8293,2.027,17.65,1111122 
DISL,ioos:station:DISL:BSCA:1,2017-10-02T00:30:00Z,30.3288,-87.8293,2.032,17.89,1111122 
DISL,ioos:station:DISL:BSCA:1,2017-10-02T01:30:00Z,30.3288,-87.8293,2.015,17.83,1111122 
DISL,ioos:station:DISL:BSCA:1,2017-10-02T02:00:00Z,30.3288,-87.8293,1.996,17.82,1111122 
DISL,ioos:station:DISL:BSCA:1,2017-10-02T02:30:00Z,30.3288,-87.8293,2.012,17.76,1111122 
DISL,ioos:station:DISL:BSCA:1,2017-10-02T03:00:00Z,30.3288,-87.8293,2.02,17.89,1111122 
DISL,ioos:station:DISL:BSCA:1,2017-10-02T03:30:00Z,30.3288,-87.8293,2.035,17.91,1111122 
DISL,ioos:station:DISL:BSCA:1,2017-10-02T04:00:00Z,30.3288,-87.8293,2.074,17.99,1111122 
DISL,ioos:station:DISL:BSCA:1,2017-10-02T04:30:00Z,30.3288,-87.8293,2.086,18.08,1111122 
DISL,ioos:station:DISL:BSCA:1,2017-10-02T05:00:00Z,30.3288,-87.8293,2.089,18.47,1111122 
DISL,ioos:station:DISL:BSCA:1,2017-10-02T05:30:00Z,30.3288,-87.8293,2.101,18.36,1111122 
DISL,ioos:station:DISL:BSCA:1,2017-10-02T06:00:00Z,30.3288,-87.8293,2.099,18.6,1111122 
DISL,ioos:station:DISL:BSCA:1,2017-10-02T06:30:00Z,30.3288,-87.8293,2.117,18.65,1111122 
DISL,ioos:station:DISL:BSCA:1,2017-10-02T07:00:00Z,30.3288,-87.8293,2.148,19.15,1111122 
DISL,ioos:station:DISL:BSCA:1,2017-10-02T07:30:00Z,30.3288,-87.8293,2.167,19.42,1111122 
DISL,ioos:station:DISL:BSCA:1,2017-10-02T08:00:00Z,30.3288,-87.8293,2.202,19.62,1111122 
DISL,ioos:station:DISL:BSCA:1,2017-10-02T08:30:00Z,30.3288,-87.8293,2.233,19.66,1111122 
DISL,ioos:station:DISL:BSCA:1,2017-10-02T09:00:00Z,30.3288,-87.8293,2.281,19.61,1111122 
DISL,ioos:station:DISL:BSCA:1,2017-10-02T09:30:00Z,30.3288,-87.8293,2.309,19.55,1111122 
DISL,ioos:station:DISL:BSCA:1,2017-10-02T10:00:00Z,30.3288,-87.8293,2.338,19.48,1111122 
DISL,ioos:station:DISL:BSCA:1,2017-10-02T10:30:00Z,30.3288,-87.8293,2.36,19.46,1111122 
DISL,ioos:station:DISL:BSCA:1,2017-10-02T11:00:00Z,30.3288,-87.8293,2.375,19.9,1111122 
DISL,ioos:station:DISL:BSCA:1,2017-10-02T11:30:00Z,30.3288,-87.8293,2.393,19.98,1111122 
DISL,ioos:station:DISL:BSCA:1,2017-10-02T12:00:00Z,30.3288,-87.8293,2.406,20.2,1111122 
DISL,ioos:station:DISL:BSCA:1,2017-10-02T12:30:00Z,30.3288,-87.8293,2.433,19.53,1111122 
DISL,ioos:station:DISL:BSCA:1,2017-10-02T13:00:00Z,30.3288,-87.8293,2.447,19.21,1111122 
DISL,ioos:station:DISL:BSCA:1,2017-10-02T13:30:00Z,30.3288,-87.8293,2.443,19.45,1111122 
DISL,ioos:station:DISL:BSCA:1,2017-10-02T14:00:00Z,30.3288,-87.8293,2.449,19.85,1111122 
DISL,ioos:station:DISL:BSCA:1,2017-10-02T14:30:00Z,30.3288,-87.8293,2.42,20.04,1111122 
DISL,ioos:station:DISL:BSCA:1,2017-10-02T15:00:00Z,30.3288,-87.8293,2.42,19.93,1111122 
DISL,ioos:station:DISL:BSCA:1,2017-10-02T15:30:00Z,30.3288,-87.8293,2.399,19.68,1111122 
DISL,ioos:station:DISL:BSCA:1,2017-10-02T16:00:00Z,30.3288,-87.8293,2.393,19.86,1111122 
DISL,ioos:station:DISL:BSCA:1,2017-10-02T16:30:00Z,30.3288,-87.8293,2.374,19.83,1111122 
DISL,ioos:station:DISL:BSCA:1,2017-10-02T17:00:00Z,30.3288,-87.8293,2.335,20.12,1111122 
DISL,ioos:station:DISL:BSCA:1,2017-10-02T17:30:00Z,30.3288,-87.8293,2.312,19.47,1111122 
DISL,ioos:station:DISL:BSCA:1,2017-10-02T18:00:00Z,30.3288,-87.8293,2.276,19.55,1111122 
DISL,ioos:station:DISL:BSCA:1,2017-10-02T18:30:00Z,30.3288,-87.8293,2.271,19.29,1111122 
DISL,ioos:station:DISL:BSCA:1,2017-10-02T19:00:00Z,30.3288,-87.8293,2.251,19.41,1111122 
DISL,ioos:station:DISL:BSCA:1,2017-10-02T19:30:00Z,30.3288,-87.8293,2.239,19.44,1111122 
DISL,ioos:station:DISL:BSCA:1,2017-10-02T20:00:00Z,30.3288,-87.8293,2.217,19.74,1111122 
DISL,ioos:station:DISL:BSCA:1,2017-10-02T20:30:00Z,30.3288,-87.8293,2.197,19.05,1111122 
DISL,ioos:station:DISL:BSCA:1,2017-10-02T21:00:00Z,30.3288,-87.8293,2.199,18.88,1111122 
DISL,ioos:station:DISL:BSCA:1,2017-10-02T21:30:00Z,30.3288,-87.8293,2.21,18.78,1111122 
DISL,ioos:station:DISL:BSCA:1,2017-10-02T22:00:00Z,30.3288,-87.8293,2.22,18.81,1111122 
DISL,ioos:station:DISL:BSCA:1,2017-10-02T22:30:00Z,30.3288,-87.8293,2.21,18.75,1111122 
DISL,ioos:station:DISL:BSCA:1,2017-10-02T23:00:00Z,30.3288,-87.8293,2.203,19.25,1111122 
DISL,ioos:station:DISL:BSCA:1,2017-10-02T23:30:00Z,30.3288,-87.8293,2.202,18.79,1111122 
DISL,ioos:station:DISL:BSCA:1,2017-10-03T00:00:00Z,30.3288,-87.8293,2.182,18.61,1111122 
DISL,ioos:station:DISL:BSCA:1,2017-10-03T00:30:00Z,30.3288,-87.8293,2.174,19.47,1111122 
DISL,ioos:station:DISL:BSCA:1,2017-10-03T01:00:00Z,30.3288,-87.8293,2.163,19.51,1111122 
DISL,ioos:station:DISL:BSCA:1,2017-10-03T01:30:00Z,30.3288,-87.8293,2.187,19.59,1111122 
DISL,ioos:station:DISL:BSCA:1,2017-10-03T02:00:00Z,30.3288,-87.8293,2.222,19.66,1111122 
DISL,ioos:station:DISL:BSCA:1,2017-10-03T02:30:00Z,30.3288,-87.8293,2.236,19.61,1111122 
DISL,ioos:station:DISL:BSCA:1,2017-10-03T03:00:00Z,30.3288,-87.8293,2.26,19.57,1111122 
DISL,ioos:station:DISL:BSCA:1,2017-10-03T03:30:00Z,30.3288,-87.8293,2.26,19.5,1111122 
DISL,ioos:station:DISL:BSCA:1,2017-10-03T04:00:00Z,30.3288,-87.8293,2.243,19.62,1111122 
DISL,ioos:station:DISL:BSCA:1,2017-10-03T04:30:00Z,30.3288,-87.8293,2.25,18.68,1111122 
DISL,ioos:station:DISL:BSCA:1,2017-10-03T05:00:00Z,30.3288,-87.8293,2.252,18.59,1111122 
DISL,ioos:station:DISL:BSCA:1,2017-10-03T05:30:00Z,30.3288,-87.8293,2.26,18.83,1111122 
DISL,ioos:station:DISL:BSCA:1,2017-10-03T06:00:00Z,30.3288,-87.8293,2.259,18.7,1111122 
DISL,ioos:station:DISL:BSCA:1,2017-10-03T06:30:00Z,30.3288,-87.8293,2.261,19.28,1111122 
DISL,ioos:station:DISL:BSCA:1,2017-10-03T07:00:00Z,30.3288,-87.8293,2.269,18.96,1111122 
DISL,ioos:station:DISL:BSCA:1,2017-10-03T07:30:00Z,30.3288,-87.8293,2.264,18.93,1111122 
DISL,ioos:station:DISL:BSCA:1,2017-10-03T08:00:00Z,30.3288,-87.8293,2.267,18.99,1111122 
DISL,ioos:station:DISL:BSCA:1,2017-10-03T08:30:00Z,30.3288,-87.8293,2.278,18.43,1111122 
DISL,ioos:station:DISL:BSCA:1,2017-10-03T09:00:00Z,30.3288,-87.8293,2.278,18.1,1111122 
DISL,ioos:station:DISL:BSCA:1,2017-10-03T09:30:00Z,30.3288,-87.8293,2.276,18.25,1111122 
DISL,ioos:station:DISL:BSCA:1,2017-10-03T10:00:00Z,30.3288,-87.8293,2.27,18.16,1111122 
DISL,ioos:station:DISL:BSCA:1,2017-10-03T10:30:00Z,30.3288,-87.8293,2.291,18.07,1111122 
DISL,ioos:station:DISL:BSCA:1,2017-10-03T11:00:00Z,30.3288,-87.8293,2.309,18.31,1111122 
DISL,ioos:station:DISL:BSCA:1,2017-10-03T11:30:00Z,30.3288,-87.8293,2.33,17.78,1111122 
DISL,ioos:station:DISL:BSCA:1,2017-10-03T12:00:00Z,30.3288,-87.8293,2.358,17.61,1111122 
DISL,ioos:station:DISL:BSCA:1,2017-10-03T12:30:00Z,30.3288,-87.8293,2.374,17.13,1111122 
DISL,ioos:station:DISL:BSCA:1,2017-10-03T13:00:00Z,30.3288,-87.8293,2.396,16.87,1111122 
DISL,ioos:station:DISL:BSCA:1,2017-10-03T13:30:00Z,30.3288,-87.8293,2.399,16.37,1111122 
DISL,ioos:station:DISL:BSCA:1,2017-10-03T14:00:00Z,30.3288,-87.8293,2.406,16.17,1111122 
DISL,ioos:station:DISL:BSCA:1,2017-10-03T14:30:00Z,30.3288,-87.8293,2.401,16.07,1111122 
DISL,ioos:station:DISL:BSCA:1,2017-10-03T15:00:00Z,30.3288,-87.8293,2.383,16.05,1111122 
DISL,ioos:station:DISL:BSCA:1,2017-10-03T15:30:00Z,30.3288,-87.8293,2.386,16.0,1111122 
DISL,ioos:station:DISL:BSCA:1,2017-10-03T16:00:00Z,30.3288,-87.8293,2.368,15.99,1111122 
DISL,ioos:station:DISL:BSCA:1,2017-10-03T16:30:00Z,30.3288,-87.8293,2.359,15.68,1111122 
DISL,ioos:station:DISL:BSCA:1,2017-10-03T17:00:00Z,30.3288,-87.8293,2.359,15.36,1111122 
DISL,ioos:station:DISL:BSCA:1,2017-10-03T17:30:00Z,30.3288,-87.8293,2.34,15.3,1111122 
DISL,ioos:station:DISL:BSCA:1,2017-10-03T18:00:00Z,30.3288,-87.8293,2.327,15.27,1111122 
DISL,ioos:station:DISL:BSCA:1,2017-10-03T18:30:00Z,30.3288,-87.8293,2.303,15.27,1111122 
DISL,ioos:station:DISL:BSCA:1,2017-10-03T19:00:00Z,30.3288,-87.8293,2.286,15.43,1111122 
DISL,ioos:station:DISL:BSCA:1,2017-10-03T19:30:00Z,30.3288,-87.8293,2.256,15.46,1111122 
DISL,ioos:station:DISL:BSCA:1,2017-10-03T20:00:00Z,30.3288,-87.8293,2.255,15.37,1111122 
DISL,ioos:station:DISL:BSCA:1,2017-10-03T20:30:00Z,30.3288,-87.8293,2.2,16.3,11111222 
DISL,ioos:station:DISL:BSCA:1,2017-10-03T21:00:00Z,30.3288,-87.8293,2.2,15.9,11111222 
DISL,ioos:station:DISL:BSCA:1,2017-10-03T21:30:00Z,30.3288,-87.8293,2.2,16.8,11111222 
DISL,ioos:station:DISL:BSCA:1,2017-10-03T22:00:00Z,30.3288,-87.8293,2.2,16.4,11111222 
DISL,ioos:station:DISL:BSCA:1,2017-10-03T22:30:00Z,30.3288,-87.8293,2.2,16.6,11111222 
DISL,ioos:station:DISL:BSCA:1,2017-10-03T23:00:00Z,30.3288,-87.8293,2.2,16.8,11111222 
DISL,ioos:station:DISL:BSCA:1,2017-10-03T23:30:00Z,30.3288,-87.8293,2.2,16.5,11111222 
DISL,ioos:station:DISL:BSCA:1,2017-10-04T00:00:00Z,30.3288,-87.8293,2.2,16.7,11111222 
DISL,ioos:station:DISL:BSCA:1,2017-10-04T00:30:00Z,30.3288,-87.8293,2.2,16.4,11111222 
DISL,ioos:station:DISL:BSCA:1,2017-10-04T01:00:00Z,30.3288,-87.8293,2.2,16.4,11111222 
DISL,ioos:station:DISL:BSCA:1,2017-10-04T01:30:00Z,30.3288,-87.8293,2.2,16.6,11111222 
DISL,ioos:station:DISL:BSCA:1,2017-10-04T02:00:00Z,30.3288,-87.8293,2.2,17.1,11111222 
DISL,ioos:station:DISL:BSCA:1,2017-10-04T02:30:00Z,30.3288,-87.8293,2.2,17.3,11111222 
DISL,ioos:station:DISL:BSCA:1,2017-10-04T03:00:00Z,30.3288,-87.8293,2.2,17.1,11111222 
DISL,ioos:station:DISL:BSCA:1,2017-10-04T03:30:00Z,30.3288,-87.8293,2.2,17.2,11111222 
DISL,ioos:station:DISL:BSCA:1,2017-10-04T04:00:00Z,30.3288,-87.8293,2.1,17.0,11111222 
DISL,ioos:station:DISL:BSCA:1,2017-10-04T04:30:00Z,30.3288,-87.8293,2.1,17.1,11111222 
DISL,ioos:station:DISL:BSCA:1,2017-10-04T05:00:00Z,30.3288,-87.8293,2.1,16.1,11111222 
DISL,ioos:station:DISL:BSCA:1,2017-10-04T05:30:00Z,30.3288,-87.8293,2.1,16.5,11111222 
DISL,ioos:station:DISL:BSCA:1,2017-10-04T06:00:00Z,30.3288,-87.8293,2.1,16.3,11111222 
DISL,ioos:station:DISL:BSCA:1,2017-10-04T06:30:00Z,30.3288,-87.8293,2.1,16.5,11111222 
DISL,ioos:station:DISL:BSCA:1,2017-10-04T07:00:00Z,30.3288,-87.8293,2.1,16.4,11111222 
DISL,ioos:station:DISL:BSCA:1,2017-10-04T07:30:00Z,30.3288,-87.8293,2.1,16.1,11111222 
DISL,ioos:station:DISL:BSCA:1,2017-10-04T08:00:00Z,30.3288,-87.8293,2.1,16.2,11111222 
DISL,ioos:station:DISL:BSCA:1,2017-10-04T08:30:00Z,30.3288,-87.8293,2.1,16.2,11111222 
DISL,ioos:station:DISL:BSCA:1,2017-10-04T09:00:00Z,30.3288,-87.8293,2.1,16.2,11111222 
DISL,ioos:station:DISL:BSCA:1,2017-10-04T09:30:00Z,30.3288,-87.8293,2.1,16.2,11111222 
DISL,ioos:station:DISL:BSCA:1,2017-10-04T10:00:00Z,30.3288,-87.8293,2.1,16.4,11111222 
DISL,ioos:station:DISL:BSCA:1,2017-10-04T10:30:00Z,30.3288,-87.8293,2.1,16.4,11111222 
DISL,ioos:station:DISL:BSCA:1,2017-10-04T11:00:00Z,30.3288,-87.8293,2.1,16.6,11111222 
DISL,ioos:station:DISL:BSCA:1,2017-10-04T11:30:00Z,30.3288,-87.8293,2.2,16.6,11111222 
DISL,ioos:station:DISL:BSCA:1,2017-10-04T12:00:00Z,30.3288,-87.8293,2.2,16.2,11111222 
DISL,ioos:station:DISL:BSCA:1,2017-10-04T12:30:00Z,30.3288,-87.8293,2.2,16.3,11111222 
DISL,ioos:station:DISL:BSCA:1,2017-10-04T13:00:00Z,30.3288,-87.8293,2.2,16.2,11111222 
DISL,ioos:station:DISL:BSCA:1,2017-10-04T13:30:00Z,30.3288,-87.8293,2.2,16.6,11111222 
DISL,ioos:station:DISL:BSCA:1,2017-10-04T14:00:00Z,30.3288,-87.8293,2.2,16.5,11111222 
DISL,ioos:station:DISL:BSCA:1,2017-10-04T14:30:00Z,30.3288,-87.8293,2.2,16.7,11111222 
DISL,ioos:station:DISL:BSCA:1,2017-10-04T15:00:00Z,30.3288,-87.8293,2.2,17.0,11111222 
DISL,ioos:station:DISL:BSCA:1,2017-10-04T15:30:00Z,30.3288,-87.8293,2.2,16.6,11111222 
DISL,ioos:station:DISL:BSCA:1,2017-10-04T16:00:00Z,30.3288,-87.8293,2.3,16.4,11111222 
DISL,ioos:station:DISL:BSCA:1,2017-10-04T16:30:00Z,30.3288,-87.8293,2.3,16.3,11111222 
DISL,ioos:station:DISL:BSCA:1,2017-10-04T17:00:00Z,30.3288,-87.8293,2.3,16.4,11111222 
DISL,ioos:station:DISL:BSCA:1,2017-10-04T17:30:00Z,30.3288,-87.8293,2.3,16.2,11111222 
DISL,ioos:station:DISL:BSCA:1,2017-10-04T18:00:00Z,30.3288,-87.8293,2.3,16.4,11111222 
DISL,ioos:station:DISL:BSCA:1,2017-10-04T18:30:00Z,30.3288,-87.8293,2.3,16.3,11111222 
DISL,ioos:station:DISL:BSCA:1,2017-10-04T19:00:00Z,30.3288,-87.8293,2.3,16.5,11111222 
DISL,ioos:station:DISL:BSCA:1,2017-10-04T19:30:00Z,30.3288,-87.8293,2.3,16.6,11111222 
DISL,ioos:station:DISL:BSCA:1,2017-10-04T20:00:00Z,30.3288,-87.8293,2.2,16.5,11111222 
DISL,ioos:station:DISL:BSCA:1,2017-10-04T20:30:00Z,30.3288,-87.8293,2.2,16.2,11111222 
DISL,ioos:station:DISL:BSCA:1,2017-10-04T21:00:00Z,30.3288,-87.8293,2.2,16.1,11111222 
DISL,ioos:station:DISL:BSCA:1,2017-10-04T21:30:00Z,30.3288,-87.8293,2.2,16.2,11111222 
DISL,ioos:station:DISL:BSCA:1,2017-10-04T22:00:00Z,30.3288,-87.8293,2.2,16.1,11111222 
DISL,ioos:station:DISL:BSCA:1,2017-10-04T22:30:00Z,30.3288,-87.8293,2.2,16.5,11111222 
DISL,ioos:station:DISL:BSCA:1,2017-10-04T23:00:00Z,30.3288,-87.8293,2.2,16.3,11111222 
DISL,ioos:station:DISL:BSCA:1,2017-10-04T23:30:00Z,30.3288,-87.8293,2.2,16.7,11111222 
DISL,ioos:station:DISL:BSCA:1,2017-10-05T00:00:00Z,30.3288,-87.8293,2.2,16.5,11111222 
DISL,ioos:station:DISL:BSCA:1,2017-10-05T00:30:00Z,30.3288,-87.8293,2.2,16.5,11111222 
DISL,ioos:station:DISL:BSCA:1,2017-10-05T01:00:00Z,30.3288,-87.8293,2.2,17.1,11111222 
DISL,ioos:station:DISL:BSCA:1,2017-10-05T01:30:00Z,30.3288,-87.8293,2.2,17.1,11111222 
DISL,ioos:station:DISL:BSCA:1,2017-10-05T02:00:00Z,30.3288,-87.8293,2.2,16.6,11111222 
DISL,ioos:station:DISL:BSCA:1,2017-10-05T02:30:00Z,30.3288,-87.8293,2.2,16.6,11111222 
DISL,ioos:station:DISL:BSCA:1,2017-10-05T03:00:00Z,30.3288,-87.8293,2.2,16.7,11111222 
DISL,ioos:station:DISL:BSCA:1,2017-10-05T03:30:00Z,30.3288,-87.8293,2.2,17.1,11111222 
DISL,ioos:station:DISL:BSCA:1,2017-10-05T04:00:00Z,30.3288,-87.8293,2.2,16.9,11111222 
DISL,ioos:station:DISL:BSCA:1,2017-10-05T04:30:00Z,30.3288,-87.8293,2.2,16.9,11111222 
DISL,ioos:station:DISL:BSCA:1,2017-10-05T05:00:00Z,30.3288,-87.8293,2.2,17.4,11111222 
DISL,ioos:station:DISL:BSCA:1,2017-10-05T05:30:00Z,30.3288,-87.8293,2.2,16.7,11111222 
DISL,ioos:station:DISL:BSCA:1,2017-10-05T06:00:00Z,30.3288,-87.8293,2.2,16.8,11111222 
DISL,ioos:station:DISL:BSCA:1,2017-10-05T06:30:00Z,30.3288,-87.8293,2.2,17.1,11111222 
DISL,ioos:station:DISL:BSCA:1,2017-10-05T07:00:00Z,30.3288,-87.8293,2.2,16.9,11111222 
DISL,ioos:station:DISL:BSCA:1,2017-10-05T07:30:00Z,30.3288,-87.8293,2.2,16.9,11111222 
DISL,ioos:station:DISL:BSCA:1,2017-10-05T08:00:00Z,30.3288,-87.8293,2.2,16.9,11111222 
DISL,ioos:station:DISL:BSCA:1,2017-10-05T08:30:00Z,30.3288,-87.8293,2.2,17.6,11111222 
DISL,ioos:station:DISL:BSCA:1,2017-10-05T09:00:00Z,30.3288,-87.8293,2.1,17.1,11111222 
DISL,ioos:station:DISL:BSCA:1,2017-10-05T09:30:00Z,30.3288,-87.8293,2.2,17.1,11111222 
DISL,ioos:station:DISL:BSCA:1,2017-10-05T10:00:00Z,30.3288,-87.8293,2.2,17.0,11111222 
DISL,ioos:station:DISL:BSCA:1,2017-10-05T10:30:00Z,30.3288,-87.8293,2.2,17.6,11111222 
DISL,ioos:station:DISL:BSCA:1,2017-10-05T11:00:00Z,30.3288,-87.8293,2.2,17.3,11111222 
DISL,ioos:station:DISL:BSCA:1,2017-10-05T11:30:00Z,30.3288,-87.8293,2.2,18.0,11111222 
DISL,ioos:station:DISL:BSCA:1,2017-10-05T12:00:00Z,30.3288,-87.8293,2.2,17.4,11111222 
DISL,ioos:station:DISL:BSCA:1,2017-10-05T12:30:00Z,30.3288,-87.8293,2.2,17.7,11111222 
DISL,ioos:station:DISL:BSCA:1,2017-10-05T13:00:00Z,30.3288,-87.8293,2.2,17.9,11111222 
DISL,ioos:station:DISL:BSCA:1,2017-10-05T13:30:00Z,30.3288,-87.8293,2.2,17.9,11111222 
DISL,ioos:station:DISL:BSCA:1,2017-10-05T14:00:00Z,30.3288,-87.8293,2.2,17.8,11111222 
DISL,ioos:station:DISL:BSCA:1,2017-10-05T14:30:00Z,30.3288,-87.8293,2.2,17.2,11111222 
DISL,ioos:station:DISL:BSCA:1,2017-10-05T15:00:00Z,30.3288,-87.8293,2.3,17.8,11111222 
DISL,ioos:station:DISL:BSCA:1,2017-10-05T15:30:00Z,30.3288,-87.8293,2.3,17.9,11111222 
DISL,ioos:station:DISL:BSCA:1,2017-10-05T16:00:00Z,30.3288,-87.8293,2.3,17.6,11111222 
DISL,ioos:station:DISL:BSCA:1,2017-10-05T16:30:00Z,30.3288,-87.8293,2.3,17.2,11111222 
DISL,ioos:station:DISL:BSCA:1,2017-10-05T17:00:00Z,30.3288,-87.8293,2.3,17.5,11111222 
DISL,ioos:station:DISL:BSCA:1,2017-10-05T17:30:00Z,30.3288,-87.8293,2.4,17.4,11111222 
DISL,ioos:station:DISL:BSCA:1,2017-10-05T18:00:00Z,30.3288,-87.8293,2.4,17.5,11111222 
DISL,ioos:station:DISL:BSCA:1,2017-10-05T18:30:00Z,30.3288,-87.8293,2.4,17.6,11111222 
DISL,ioos:station:DISL:BSCA:1,2017-10-05T19:00:00Z,30.3288,-87.8293,2.4,17.8,11111222 
DISL,ioos:station:DISL:BSCA:1,2017-10-05T19:30:00Z,30.3288,-87.8293,2.4,17.5,11111222 
DISL,ioos:station:DISL:BSCA:1,2017-10-05T20:00:00Z,30.3288,-87.8293,2.3,17.8,11111222 
DISL,ioos:station:DISL:BSCA:1,2017-10-05T20:30:00Z,30.3288,-87.8293,2.3,17.3,11111222 
DISL,ioos:station:DISL:BSCA:1,2017-10-05T21:00:00Z,30.3288,-87.8293,2.3,17.4,11111222 
DISL,ioos:station:DISL:BSCA:1,2017-10-05T21:30:00Z,30.3288,-87.8293,2.3,18.0,11111222 
DISL,ioos:station:DISL:BSCA:1,2017-10-05T22:00:00Z,30.3288,-87.8293,2.3,18.1,11111222 
DISL,ioos:station:DISL:BSCA:1,2017-10-05T22:30:00Z,30.3288,-87.8293,2.2,18.0,11111222 
DISL,ioos:station:DISL:BSCA:1,2017-10-05T23:00:00Z,30.3288,-87.8293,2.2,18.0,11111222 
DISL,ioos:station:DISL:BSCA:1,2017-10-05T23:30:00Z,30.3288,-87.8293,2.2,18.2,11111222 
DISL,ioos:station:DISL:BSCA:1,2017-10-06T00:00:00Z,30.3288,-87.8293,2.2,17.8,11111222 
DISL,ioos:station:DISL:BSCA:1,2017-10-06T00:30:00Z,30.3288,-87.8293,2.2,17.8,11111222 
DISL,ioos:station:DISL:BSCA:1,2017-10-06T01:00:00Z,30.3288,-87.8293,2.2,18.0,11111222 
DISL,ioos:station:DISL:BSCA:1,2017-10-06T01:30:00Z,30.3288,-87.8293,2.2,18.0,11111222 
DISL,ioos:station:DISL:BSCA:1,2017-10-06T02:00:00Z,30.3288,-87.8293,2.2,17.8,11111222 
DISL,ioos:station:DISL:BSCA:1,2017-10-06T02:30:00Z,30.3288,-87.8293,2.2,17.6,11111222 
DISL,ioos:station:DISL:BSCA:1,2017-10-06T03:00:00Z,30.3288,-87.8293,2.2,18.1,11111222 
DISL,ioos:station:DISL:BSCA:1,2017-10-06T03:30:00Z,30.3288,-87.8293,2.2,18.2,11111222 
DISL,ioos:station:DISL:BSCA:1,2017-10-06T04:00:00Z,30.3288,-87.8293,2.2,18.5,11111222 
DISL,ioos:station:DISL:BSCA:1,2017-10-06T04:30:00Z,30.3288,-87.8293,2.2,18.5,11111222 
DISL,ioos:station:DISL:BSCA:1,2017-10-06T05:00:00Z,30.3288,-87.8293,2.2,18.2,11111222 
DISL,ioos:station:DISL:BSCA:1,2017-10-06T05:30:00Z,30.3288,-87.8293,2.2,18.1,11111222 
DISL,ioos:station:DISL:BSCA:1,2017-10-06T06:00:00Z,30.3288,-87.8293,2.2,18.0,11111222 
DISL,ioos:station:DISL:BSCA:1,2017-10-06T06:30:00Z,30.3288,-87.8293,2.2,18.1,11111222 
DISL,ioos:station:DISL:BSCA:1,2017-10-06T07:00:00Z,30.3288,-87.8293,2.1,17.7,11111222 
DISL,ioos:station:DISL:BSCA:1,2017-10-06T07:30:00Z,30.3288,-87.8293,2.1,18.2,11111222 
DISL,ioos:station:DISL:BSCA:1,2017-10-06T08:00:00Z,30.3288,-87.8293,2.1,17.5,11111222 
DISL,ioos:station:DISL:BSCA:1,2017-10-06T08:30:00Z,30.3288,-87.8293,2.1,17.9,11111222 
DISL,ioos:station:DISL:BSCA:1,2017-10-06T09:00:00Z,30.3288,-87.8293,2.1,17.9,11111222 
DISL,ioos:station:DISL:BSCA:1,2017-10-06T09:30:00Z,30.3288,-87.8293,2.1,18.1,11111222 
DISL,ioos:station:DISL:BSCA:1,2017-10-06T10:00:00Z,30.3288,-87.8293,2.1,18.0,11111222 
DISL,ioos:station:DISL:BSCA:1,2017-10-06T10:30:00Z,30.3288,-87.8293,2.1,18.1,11111222 
DISL,ioos:station:DISL:BSCA:1,2017-10-06T11:00:00Z,30.3288,-87.8293,2.1,18.1,11111222 
DISL,ioos:station:DISL:BSCA:1,2017-10-06T11:30:00Z,30.3288,-87.8293,2.1,18.1,11111222 
DISL,ioos:station:DISL:BSCA:1,2017-10-06T12:00:00Z,30.3288,-87.8293,2.1,17.8,11111222 
DISL,ioos:station:DISL:BSCA:1,2017-10-06T12:30:00Z,30.3288,-87.8293,2.1,18.1,11111222 
DISL,ioos:station:DISL:BSCA:1,2017-10-06T13:00:00Z,30.3288,-87.8293,2.1,18.1,11111222 
DISL,ioos:station:DISL:BSCA:1,2017-10-06T13:30:00Z,30.3288,-87.8293,2.1,18.2,11111222 
DISL,ioos:station:DISL:BSCA:1,2017-10-06T14:00:00Z,30.3288,-87.8293,2.1,18.2,11111222 
DISL,ioos:station:DISL:BSCA:1,2017-10-06T14:30:00Z,30.3288,-87.8293,2.1,18.2,11111222 
DISL,ioos:station:DISL:BSCA:1,2017-10-06T15:00:00Z,30.3288,-87.8293,2.2,18.1,11111222 
DISL,ioos:station:DISL:BSCA:1,2017-10-06T15:30:00Z,30.3288,-87.8293,2.2,18.4,11111222 
DISL,ioos:station:DISL:BSCA:1,2017-10-06T16:00:00Z,30.3288,-87.8293,2.2,18.2,11111222 